Lid_Strength_Index
9 11 11 10 9 9 10 11 11 9 10 12 11 10 9 8 8 8 7 8 7 7 6 6 7 8 8 8 8 7 6 5 5 5 6 6 6 4 3 2 2 1 2 2
11 12 9 9 10 10 11 12 11 9 11 12 11 12 10 9 9 9 8 8 8 7 7 7 8 8 8 9 8 6 6 5 5 5 6 6 6 4 3 1 1 2 2 2
11 10 10 11 12 12 12 12 12 12 11 11 13 11 9 9 10 10 9 9 9 8 8 8 9 9 9 8 7 7 6 5 5 6 6 5 4 3 2 2 3 2 2 2
10 9 11 12 12 12 13 11 12 13 13 13 12 18 14 9 10 11 10 9 9 9 8 8 9 9 9 8 7 7 6 6 5 6 6 6 6 5 3 3 2 3 2 3
11 11 11 11 11 11 12 12 12 13 14 14 13 15 13 10 11 11 10 9 9 9 8 9 9 10 9 8 7 6 6 6 6 6 7 6 6 4 3 3 3 2 2 2
10 9 9 10 10 10 11 13 13 13 14 17 14 14 14 12 12 12 11 10 10 9 9 9 9 10 10 8 7 6 6 7 6 6 7 6 6 5 4 4 4 2 1 1
12 12 11 10 12 11 12 13 17 19 18 17 16 17 12 10 12 12 11 10 10 9 10 10 11 11 10 9 7 7 7 7 6 6 7 6 6 5 4 4 4 3 1 1
13 15 13 12 12 13 13 12 14 20 18 15 16 17 13 11 11 12 10 10 10 10 10 10 11 11 10 9 8 8 7 7 7 6 7 6 7 5 5 4 4 4 4 2
14 14 13 12 13 12 14 16 13 15 18 17 15 13 11 13 12 12 12 10 11 10 10 10 10 11 10 10 8 8 8 8 7 7 7 7 7 7 5 5 4 4 3 3
13 16 14 14 13 13 14 13 17 16 20 20 15 15 14 14 13 12 12 11 10 10 10 10 11 11 11 10 9 8 8 8 8 7 6 7 7 7 6 5 5 5 4 4
12 13 16 15 16 16 16 16 16 15 15 17 17 15 12 12 12 12 11 10 10 10 10 10 11 11 11 10 9 8 8 7 8 7 6 7 8 6 7 6 6 5 5 5
11 13 15 16 14 13 13 15 15 17 17 17 18 15 12 12 12 12 11 10 10 9 9 10 10 11 12 11 9 9 8 7 8 7 7 7 8 7 7 7 6 6 6 5
12 14 17 17 15 15 15 14 14 14 15 17 17 14 12 12 12 12 11 11 10 10 10 10 11 12 12 11 10 9 8 8 7 8 7 8 8 8 8 8 7 8 7 6
11 13 14 16 14 13 17 15 14 14 16 16 15 12 12 12 12 11 11 10 10 10 10 10 11 12 12 12 11 9 8 8 8 8 8 8 8 8 9 9 8 8 8 8
12 15 15 14 13 14 14 15 14 15 14 15 13 13 11 10 11 11 10 10 11 11 11 11 11 11 12 12 11 9 8 8 8 9 8 9 9 9 10 10 9 9 9 9
12 15 16 17 14 15 16 14 14 14 14 13 13 13 11 10 9 10 10 10 11 11 11 10 10 11 11 12 11 10 9 9 8 9 9 10 11 11 11 10 10 10 9 9
13 15 16 17 16 16 17 16 14 13 13 13 15 12 10 11 10 9 9 9 10 11 10 10 10 10 11 11 11 10 9 8 10 10 10 10 11 11 12 11 10 10 9 9
14 15 15 17 16 20 13 12 12 12 12 12 12 11 10 10 9 8 8 9 9 10 10 10 9 9 9 10 11 10 9 9 10 10 10 11 11 12 13 12 11 10 10 10
11 13 15 17 17 15 13 13 13 14 17 15 15 14 12 10 10 10 8 8 8 8 9 8 8 8 8 10 11 11 10 10 11 11 11 12 12 13 13 13 12 12 11 11
11 11 14 16 19 20 18 16 14 12 16 16 15 15 15 13 14 11 8 8 9 9 10 10 10 10 10 9 11 12 11 10 11 11 11 12 13 13 13 14 14 15 14 14
14 14 16 16 17 15 18 15 14 16 19 17 16 16 16 15 11 11 11 11 10 11 11 11 10 10 10 10 11 12 11 11 10 11 12 13 13 14 13 14 15 16 15 16
18 19 16 15 17 19 16 16 19 18 16 17 17 17 17 14 13 12 12 12 12 12 12 11 11 11 11 11 12 13 12 11 11 11 12 13 14 14 15 15 16 16 16 16
17 18 20 18 18 15 15 16 15 15 16 17 17 17 17 16 16 15 14 13 13 13 13 13 13 13 12 13 13 13 13 12 12 13 14 14 15 15 15 15 16 16 16 16
16 15 18 18 15 15 14 14 15 15 16 16 16 17 17 18 17 17 16 15 16 15 15 15 14 14 14 14 14 14 13 13 14 14 14 14 15 15 15 15 15 15 15 16
16 16 17 17 15 14 13 14 16 16 16 16 17 17 17 18 19 18 17 17 17 17 17 16 16 16 16 15 15 14 14 15 15 15 14 14 14 15 14 14 14 15 14 14
13 16 17 18 15 15 14 14 16 17 17 18 19 19 18 18 19 19 19 18 18 18 18 19 19 18 18 17 16 16 15 15 15 14 14 13 13 13 13 14 14 13 13 13